Wind_Speed
19 21 23 24 25 25 24 22 21 21 20 20 20 19 19 18 17 16 15 14 13 13 13 13 13 13 14 14 14 13 14 14 14 15 15 16 16 16 16 17 17 17 17 17 17 17 16 16 16 16 16 15 15 15 14 14 14 14 14 14 15 14 14 14 14 14 14 14 14 14 14 14 14 14 14 14 14 14 14 15 15 15 15 14 14 14
17 19 21 23 24 25 24 22 21 20 20 19 19 19 18 18 17 16 15 14 13 12 11 11 12 12 13 13 13 12 12 12 12 13 13 13 14 14 14 15 15 15 15 15 14 14 14 14 14 13 13 12 12 12 12 12 12 12 12 12 12 12 12 12 12 12 12 12 12 12 12 12 12 12 12 12 12 13 13 13 13 13 13 13 13 13
16 18 20 21 22 23 23 23 22 20 19 19 18 18 18 18 17 17 16 15 14 12 11 11 11 12 12 12 12 12 12 11 11 11 11 12 12 13 13 13 14 14 13 13 13 13 12 12 12 11 11 10 10 10 10 10 10 10 10 10 10 10 10 10 10 10 10 10 10 11 11 11 11 11 11 11 12 12 12 13 13 13 12 12 12 12
16 18 19 19 20 21 21 22 21 21 19 18 18 18 18 18 17 17 16 16 15 13 13 12 11 11 12 12 12 12 11 11 11 11 11 11 12 12 13 13 13 13 13 13 12 12 12 11 11 10 10 9 9 9 9 9 9 9 9 9 9 9 9 9 9 9 9 10 10 10 11 11 11 11 11 11 12 12 13 13 13 12 12 12 12 12
18 17 17 17 18 18 19 19 20 20 19 18 18 18 18 18 18 18 17 17 16 15 14 13 12 12 12 12 12 12 11 11 11 11 11 11 12 12 13 13 13 13 13 13 12 12 11 11 10 10 10 9 9 9 8 8 8 8 8 8 8 8 8 8 8 9 9 9 10 10 11 11 12 12 12 12 12 13 13 14 14 13 13 13 13 13
20 19 18 17 16 16 16 17 17 18 18 18 17 18 19 19 20 19 19 18 17 16 15 15 14 14 13 13 12 12 11 11 11 11 11 12 13 13 14 14 14 13 13 12 12 11 11 10 10 10 9 9 9 8 8 8 8 7 7 7 8 8 8 8 8 9 9 10 10 11 11 12 12 13 13 13 14 14 15 15 15 15 15 15 15 14
22 21 20 19 18 17 16 16 16 16 16 17 17 17 19 21 22 22 21 20 19 18 17 17 16 15 15 14 13 13 12 12 12 12 13 13 14 15 15 15 14 13 13 12 11 11 10 10 9 9 9 9 8 8 8 7 7 7 7 7 7 8 8 8 8 9 9 10 10 11 12 12 13 14 14 14 15 15 16 16 17 17 17 17 17 17
22 23 22 21 20 19 18 17 16 16 16 16 16 17 19 22 24 25 24 23 21 21 20 19 18 17 17 16 15 14 14 13 13 14 14 15 16 16 16 16 15 14 13 12 11 10 10 9 9 9 8 8 8 7 7 7 6 7 7 7 7 8 8 8 8 9 9 10 10 11 12 13 14 14 15 15 15 16 17 17 18 18 18 18 19 18
20 21 22 22 21 21 20 20 19 18 16 16 16 16 18 22 25 27 27 26 25 24 23 22 21 20 19 19 18 17 16 15 15 16 16 17 18 18 18 17 16 15 14 12 11 11 10 9 9 9 8 8 7 7 6 6 6 6 7 7 7 8 8 8 8 8 9 10 10 11 12 13 14 15 15 16 16 17 17 18 18 19 19 19 19 20
18 19 20 21 21 21 21 21 20 20 18 17 16 16 16 19 24 28 30 29 28 27 26 25 24 24 23 22 21 20 19 18 18 18 18 19 20 20 20 19 18 17 16 14 13 12 11 11 10 9 9 8 7 6 6 6 6 6 7 7 7 8 8 8 8 9 9 10 10 11 12 13 14 15 15 16 16 17 18 18 19 19 19 19 20 20
18 18 18 19 20 21 21 21 21 20 19 18 18 18 17 18 20 25 29 31 30 29 28 28 28 27 26 26 25 24 22 21 21 21 21 21 21 21 21 20 20 19 18 17 16 14 13 12 11 11 10 9 8 7 7 7 7 7 7 8 8 8 8 9 9 9 9 10 11 11 12 13 14 15 15 16 17 17 18 18 18 19 19 19 20 20
19 19 19 19 19 20 20 21 20 20 19 19 20 20 20 19 19 21 25 29 31 31 31 31 30 30 30 29 29 27 26 25 24 24 23 24 24 24 23 22 22 21 20 19 18 17 16 14 13 12 11 10 9 8 8 8 8 9 9 9 9 9 9 9 10 10 10 10 11 12 12 13 14 15 16 16 17 17 18 18 18 19 19 20 20 21
20 20 21 21 20 20 20 20 20 20 20 20 21 22 22 21 20 20 21 25 28 30 31 32 32 32 32 32 31 31 30 29 27 26 26 26 26 26 25 25 24 23 22 21 20 19 18 17 16 14 13 12 11 10 10 10 10 10 11 11 11 11 11 11 10 10 10 11 11 12 13 14 14 15 16 16 17 17 18 18 19 19 20 20 21 21
19 20 21 21 21 21 21 21 21 22 22 22 22 22 21 21 20 20 21 22 25 28 30 31 32 33 33 32 32 32 32 32 30 29 28 28 28 28 27 27 26 25 24 23 22 21 20 18 17 16 15 14 13 13 13 13 13 13 13 12 12 12 12 12 11 11 11 12 12 13 13 14 15 15 16 16 17 18 18 18 19 19 20 21 21 22
18 18 19 21 21 22 22 22 23 23 24 24 24 23 22 21 21 22 22 23 25 27 29 32 33 33 33 32 32 32 33 33 32 31 31 30 29 29 28 28 27 26 25 24 23 22 21 19 19 18 17 16 15 15 15 15 15 14 14 14 14 13 13 13 12 12 12 13 13 14 14 15 15 16 16 17 17 18 18 19 19 20 20 21 22 22
17 18 19 20 21 22 23 23 24 25 25 25 25 25 24 23 23 23 23 24 26 28 31 33 34 34 34 33 33 32 32 33 33 33 32 32 30 30 29 29 29 28 27 25 24 23 22 21 20 19 18 18 18 17 17 17 16 16 16 15 15 14 14 14 14 14 14 14 14 15 15 15 16 16 17 17 18 18 18 19 19 20 21 22 22 23
17 18 19 20 21 22 23 24 25 26 26 26 26 26 26 25 25 24 24 25 27 29 32 34 35 34 33 34 33 33 32 33 33 33 33 33 32 31 30 30 30 29 28 27 25 24 23 22 21 21 20 20 20 19 19 18 18 18 17 17 16 16 15 15 15 15 15 16 16 16 16 16 17 17 18 18 18 18 19 19 20 20 21 22 23 23
19 19 19 20 20 22 23 24 25 25 26 25 25 26 26 26 25 25 26 26 28 30 32 34 35 35 33 34 34 33 33 32 33 34 35 35 35 33 32 32 31 31 29 28 27 25 24 24 23 22 22 22 21 21 20 20 19 19 19 18 18 17 17 17 17 17 17 17 17 17 17 17 18 18 18 19 19 19 19 19 20 21 22 22 23 24
20 20 20 20 20 21 21 22 23 24 24 24 24 24 24 25 26 26 27 28 29 30 31 32 33 35 35 35 35 33 32 32 32 33 35 36 37 36 35 34 33 32 31 29 28 27 26 25 24 24 23 23 22 22 21 21 21 20 20 20 19 19 18 18 18 18 18 18 18 18 18 18 19 19 19 19 19 19 20 20 21 21 22 23 24 24
21 21 22 21 21 21 21 21 22 22 22 23 23 23 24 25 26 27 28 28 28 29 30 31 33 34 34 35 34 32 31 31 31 31 33 36 38 38 37 36 34 33 32 31 29 28 27 26 26 25 24 23 22 22 22 22 21 21 21 21 20 20 20 19 19 19 19 19 19 19 19 19 19 20 20 20 20 20 20 21 21 22 23 23 24 25
20 22 23 22 22 23 23 23 22 22 22 22 22 22 22 23 25 26 27 27 28 28 29 31 32 33 33 33 32 31 31 30 30 30 31 33 35 35 35 34 33 32 32 32 30 29 28 27 27 26 25 24 23 23 22 22 22 22 21 21 21 20 20 20 20 20 20 20 20 20 20 20 20 20 20 20 21 21 21 22 22 23 23 24 25 26
17 18 20 21 23 24 24 24 24 23 23 23 22 22 22 22 24 25 25 26 26 27 29 30 31 32 32 32 32 32 31 31 31 30 30 30 30 30 31 30 28 28 31 32 31 30 29 28 27 26 25 25 24 24 23 23 22 22 21 21 21 21 21 21 21 21 21 21 21 21 21 21 21 21 21 21 21 22 22 22 23 23 24 25 26 27
14 14 15 17 19 21 22 23 23 24 23 23 24 24 24 23 24 25 25 26 26 27 28 29 30 30 31 31 31 31 31 32 32 31 31 30 30 31 30 29 27 25 28 30 31 31 30 29 28 27 27 26 25 25 24 23 22 21 21 21 21 21 22 22 22 22 22 22 22 21 21 21 21 21 22 22 22 23 23 23 23 24 25 26 27 28
14 13 13 13 14 16 17 19 20 20 21 22 23 24 24 24 25 25 25 25 26 27 27 27 28 28 29 30 30 30 30 31 32 32 32 32 32 33 32 31 28 25 26 28 29 30 30 29 28 28 28 27 26 25 24 24 23 22 21 21 22 22 22 23 23 23 23 22 22 22 22 22 22 22 23 23 23 23 24 24 25 26 27 28 28 29
15 15 14 13 12 12 13 15 16 17 18 20 22 23 24 25 25 26 26 26 26 27 27 27 27 27 28 28 28 29 30 30 31 31 31 32 31 32 32 32 30 26 26 27 28 28 28 28 28 28 28 28 26 25 24 24 23 23 23 23 23 23 23 23 23 23 23 23 23 22 22 23 23 23 24 24 24 25 25 25 26 27 28 29 29 30
15 15 14 13 13 12 12 12 13 14 15 17 19 21 22 23 24 26 28 29 29 28 28 28 27 27 27 27 27 28 29 29 30 30 30 30 30 30 31 32 30 28 28 28 28 28 28 27 27 27 27 27 26 25 24 24 24 24 24 24 23 23 23 24 24 24 24 23 23 23 23 24 24 25 25 25 25 26 26 27 28 29 30 30 30 30
12 11 11 11 11 11 11 12 12 12 12 14 16 17 18 18 20 23 27 29 30 30 29 29 29 29 28 28 28 28 28 29 29 29 29 28 28 28 29 29 28 27 28 29 29 28 28 28 28 27 26 25 25 25 24 24 24 24 24 24 24 24 24 24 24 24 24 23 23 24 24 25 25 26 26 26 27 27 28 29 30 30 31 30 30 30
7 6 6 6 7 8 9 10 11 11 11 12 12 13 14 15 17 19 22 24 26 27 27 28 30 30 30 29 29 28 27 28 28 28 28 26 25 25 26 25 24 24 25 27 28 27 27 27 26 25 24 23 22 22 22 23 23 24 24 24 24 24 24 24 24 23 23 23 24 24 25 25 26 27 27 27 28 29 29 30 31 31 31 31 30 30
3 3 3 3 4 4 5 7 8 9 9 10 10 10 11 12 14 15 16 19 21 23 24 25 26 28 30 30 29 27 27 27 27 27 27 25 24 24 24 23 21 21 22 23 24 23 23 22 22 21 21 21 20 19 19 20 21 22 23 23 24 24 23 23 23 23 23 23 24 24 25 26 27 27 28 29 29 30 31 31 32 31 31 30 30 30
1 1 1 1 1 2 3 4 5 6 7 8 8 8 9 10 11 12 13 14 16 18 19 20 21 23 24 25 25 24 24 25 26 26 25 25 25 25 24 23 22 21 21 22 22 22 21 20 19 19 19 19 18 18 18 18 19 20 22 22 23 23 23 23 22 22 23 23 24 25 26 27 28 28 29 30 31 31 32 32 32 31 31 30 30 30
1 1 1 1 1 2 2 3 3 4 5 6 6 7 8 8 9 9 10 11 12 13 14 16 17 17 18 19 18 18 18 21 23 23 23 24 25 25 24 24 24 23 22 23 24 25 23 22 22 21 22 21 20 19 18 18 19 20 21 22 22 22 22 22 22 22 23 24 24 25 26 27 28 29 30 31 32 32 32 32 31 31 30 30 30 30
2 1 1 0 1 1 2 3 3 3 4 5 6 6 7 7 8 8 8 9 10 10 11 12 13 14 14 15 15 15 16 18 19 19 20 22 24 25 25 26 26 26 25 24 24 24 23 24 25 25 25 24 24 23 21 21 20 21 21 22 22 22 22 22 22 23 24 24 25 26 27 28 29 30 31 32 32 32 31 31 30 30 30 30 30 30
4 4 3 3 2 1 1 2 3 3 4 4 5 6 7 7 8 8 8 8 9 9 9 10 10 11 11 12 13 14 15 15 15 16 17 19 22 24 25 26 27 27 27 26 25 24 23 25 26 26 26 26 25 24 24 23 22 22 22 22 22 23 23 23 24 24 25 25 26 27 28 29 30 30 31 31 31 31 30 30 30 30 30 30 30 30
7 7 6 5 5 4 3 3 4 4 4 4 5 6 6 7 7 8 8 9 9 9 9 9 9 8 9 9 10 11 12 13 13 13 14 17 20 23 24 25 27 27 28 27 26 25 24 24 24 24 24 24 24 24 24 24 23 23 23 23 23 23 24 24 25 25 26 26 27 27 28 29 29 30 30 30 30 30 29 29 29 29 29 30 30 30
8 8 8 7 7 6 6 5 5 5 5 5 5 6 6 6 7 7 7 8 8 9 10 10 9 9 8 8 8 9 10 11 12 12 13 15 18 20 22 23 25 26 27 27 26 25 23 21 21 21 21 21 22 23 23 23 23 23 23 23 23 23 24 25 25 25 26 26 26 27 28 28 29 29 30 29 29 29 29 29 29 29 29 29 29 30
7 7 8 7 7 7 6 6 6 6 5 5 5 6 6 6 7 7 7 7 7 8 9 9 10 10 10 9 8 8 9 10 11 11 12 14 16 17 19 21 22 23 24 25 25 25 23 21 20 19 19 19 20 21 22 22 22 21 21 21 22 23 24 24 25 25 25 26 26 27 28 29 29 29 29 29 29 28 28 28 28 28 28 29 29 29
7 7 7 7 7 7 6 6 6 6 6 5 5 5 5 5 6 6 6 7 7 7 7 8 9 9 10 11 10 10 10 10 10 11 12 13 14 15 17 18 19 20 21 23 24 24 24 23 21 19 18 19 19 20 20 21 20 20 20 20 21 22 23 25 25 25 25 26 27 27 28 29 29 29 29 28 28 28 28 28 28 28 28 28 28 29
6 6 7 7 6 6 6 6 6 5 5 5 5 4 4 4 4 5 5 5 6 6 6 7 7 8 8 9 10 10 10 10 10 11 12 13 14 15 15 16 17 18 19 20 21 22 22 23 22 20 20 20 21 21 21 20 20 20 21 21 22 23 24 25 26 26 26 26 27 28 28 29 29 29 28 28 27 27 27 28 28 28 28 28 28 28
6 6 6 6 6 6 6 5 5 5 5 5 4 4 4 4 4 4 4 4 5 5 6 6 7 7 7 8 9 9 10 11 11 12 13 13 14 15 16 16 16 17 18 18 19 19 20 20 21 21 21 21 22 22 22 22 21 22 22 23 24 25 25 26 26 26 26 26 26 27 27 28 28 27 27 27 27 27 27 27 27 27 27 27 27 27
6 6 6 6 6 6 5 5 5 5 5 4 4 4 3 3 3 3 4 4 4 4 5 5 6 7 7 7 8 8 9 10 11 12 13 13 14 15 16 17 17 17 18 18 18 19 19 19 20 21 21 21 21 22 22 22 23 23 24 24 24 25 26 26 25 25 25 25 25 25 26 26 26 26 25 25 26 26 26 26 26 27 27 26 26 25
6 6 6 6 6 5 5 5 5 5 4 4 4 4 4 3 3 3 3 3 4 4 4 4 5 5 6 6 7 7 8 8 9 10 11 12 13 14 16 17 17 18 18 18 18 19 19 20 20 21 21 21 22 22 22 23 23 24 24 24 25 25 24 24 24 23 23 24 24 25 25 25 25 24 24 24 24 25 25 25 25 25 26 26 25 25
5 6 6 6 6 6 5 5 5 5 5 5 4 4 4 4 3 3 3 3 4 4 4 4 4 4 5 5 5 6 6 7 7 8 9 10 11 12 13 15 16 16 17 17 17 18 19 19 20 20 21 21 21 21 21 22 23 23 23 24 24 24 24 23 23 22 21 22 23 24 23 23 23 23 23 22 23 23 23 23 23 23 24 24 24 24
5 6 6 5 5 5 5 5 5 5 5 5 5 4 4 4 3 3 3 3 3 3 3 4 4 4 4 4 4 4 5 5 6 6 7 8 8 10 11 12 13 13 14 14 15 16 17 18 18 19 19 19 19 19 20 20 21 21 21 21 21 20 19 20 20 20 19 21 22 22 22 22 22 22 22 22 22 22 22 22 22 22 22 22 22 22
5 5 5 5 5 5 5 6 6 6 6 5 5 5 5 4 4 4 3 3 3 2 3 3 3 3 3 3 3 3 3 4 5 5 6 6 7 8 8 9 10 10 11 12 13 13 14 15 16 17 17 17 17 17 18 18 18 18 18 19 19 18 18 19 19 19 19 20 21 22 21 21 21 21 21 21 21 20 20 20 20 20 20 21 21 21
5 5 5 5 6 6 6 6 6 6 6 5 5 5 5 5 5 5 4 4 3 3 3 2 2 2 3 2 2 2 2 2 3 4 4 5 6 6 7 8 8 8 9 10 11 12 12 12 13 14 13 13 14 14 15 15 16 16 16 16 16 17 18 19 19 19 19 20 20 21 21 20 20 20 20 20 19 19 19 19 19 19 19 20 20 20
5 5 5 5 6 6 6 6 6 6 5 5 5 5 5 5 5 4 4 4 4 4 3 3 3 3 3 2 2 1 1 1 2 3 4 4 5 5 6 7 7 7 8 9 9 10 11 11 12 11 11 11 12 13 13 14 14 14 15 15 15 15 16 17 18 18 19 19 20 20 20 20 20 19 19 19 19 18 18 18 18 19 19 19 19 20
4 4 4 4 5 5 5 5 5 5 5 5 5 5 5 5 5 4 4 4 4 4 4 3 3 2 2 2 2 1 1 0 1 2 3 4 5 5 6 7 7 7 8 8 8 9 9 9 10 10 10 10 11 12 12 12 12 13 14 14 14 14 15 16 17 18 18 19 19 20 20 20 19 20 20 20 19 19 18 18 18 18 19 19 19 19
3 3 3 3 3 4 4 4 5 5 5 5 5 5 5 5 4 4 4 4 3 3 3 2 2 2 2 2 1 1 0 0 1 2 3 4 5 6 7 7 8 8 8 9 9 9 9 9 9 9 9 10 11 11 11 12 12 12 13 14 14 14 15 16 18 18 18 19 19 20 20 20 20 20 20 20 20 19 19 18 18 18 18 18 18 19
2 2 2 2 3 3 3 4 4 4 5 5 5 5 4 4 4 4 3 3 3 2 2 2 1 1 1 0 0 0 1 1 2 2 3 4 5 6 6 7 8 9 10 10 10 10 10 10 10 10 10 10 10 11 11 11 12 12 13 14 14 15 16 17 18 19 19 19 19 19 19 19 20 20 20 20 20 20 20 19 18 17 17 17 17 18
1 1 1 1 2 2 2 2 3 3 3 4 4 4 3 3 3 2 2 2 2 2 2 2 2 2 1 1 2 2 2 2 3 3 4 4 5 5 6 7 8 9 10 10 11 11 11 11 12 11 11 10 10 9 10 11 12 12 13 14 15 16 16 17 18 19 19 19 19 19 18 19 19 20 20 20 21 21 21 20 19 18 17 16 17 17
1 1 1 0 1 1 1 2 2 2 2 2 2 2 2 2 2 2 1 1 1 2 2 2 2 2 2 2 3 3 3 4 4 5 5 6 6 6 7 7 7 8 8 9 10 10 10 9 9 9 9 9 9 9 9 10 11 11 12 14 15 16 17 17 18 19 18 18 18 18 18 18 19 19 20 20 21 22 22 21 20 18 17 17 16 17
Wind_Direction
198 197 196 195 193 191 188 184 181 180 180 179 179 179 179 182 185 188 192 196 200 202 202 202 200 199 197 196 196 196 197 198 199 199 200 201 203 205 207 209 211 212 213 214 214 215 215 216 217 218 219 221 223 224 226 228 230 231 233 236 238 241 243 245 246 248 250 252 254 255 257 259 261 262 264 266 267 268 270 271 271 272 273 273 274 274
189 190 191 192 192 192 190 187 185 183 182 181 180 180 181 183 186 188 191 195 198 199 198 196 194 192 190 188 187 187 189 190 192 193 195 196 198 200 202 204 205 206 206 207 207 207 208 209 210 211 213 215 218 220 223 225 228 230 232 235 237 240 242 244 246 248 250 251 253 255 257 258 260 262 264 265 267 269 270 271 272 273 274 275 275 275
180 181 184 186 188 189 189 189 188 187 186 185 185 185 185 186 187 189 191 193 194 195 194 192 189 186 184 182 180 180 181 184 186 189 191 193 194 196 196 197 197 197 197 197 197 197 198 199 200 202 204 207 210 213 217 220 224 227 230 234 237 239 242 244 246 247 249 251 252 254 255 257 259 261 263 265 267 269 270 271 272 273 274 274 275 274
181 177 177 179 180 183 184 186 186 186 185 187 189 190 190 190 189 190 191 193 193 193 192 190 188 186 183 179 177 176 178 180 183 186 189 190 190 191 191 190 189 188 187 187 188 188 189 190 192 194 196 199 202 206 211 215 220 225 229 233 236 240 243 245 246 248 250 251 253 254 256 258 260 262 264 266 268 269 270 271 272 272 272 272 272 272
189 184 179 177 177 178 179 180 181 182 182 183 186 190 192 192 191 191 192 193 194 195 194 193 191 189 185 181 178 177 177 179 183 186 187 188 187 185 184 182 181 180 179 179 180 182 183 184 186 188 190 193 196 201 206 212 217 223 228 233 237 241 244 246 249 250 252 254 255 257 259 261 263 265 267 269 270 272 273 273 274 274 273 273 272 272
197 194 190 186 184 182 180 180 180 180 179 179 181 185 190 192 193 194 194 195 196 197 198 197 195 192 189 186 183 181 180 181 184 186 187 185 183 181 178 176 175 174 174 175 176 178 179 181 182 184 186 188 191 196 202 208 214 220 226 231 236 240 244 246 249 252 255 258 260 262 265 267 269 271 272 273 275 276 277 278 278 278 277 276 275 275
201 201 201 199 197 194 190 188 187 186 183 180 179 181 186 190 194 196 198 198 198 199 200 200 198 195 192 190 188 187 186 186 187 187 187 184 181 178 175 173 172 172 173 175 176 178 180 181 183 184 185 186 189 193 198 204 210 216 221 227 232 237 242 246 249 253 257 261 264 267 270 272 274 275 277 278 280 281 282 282 283 283 283 282 281 280
204 205 206 206 205 204 202 200 197 194 191 188 184 182 185 189 193 197 199 199 199 200 201 201 200 198 196 194 193 192 191 191 191 190 188 185 182 178 175 173 172 173 174 177 180 183 185 187 187 188 188 189 191 194 198 204 209 215 220 224 229 235 239 244 249 254 259 263 267 270 273 275 277 279 280 282 283 284 285 286 287 287 287 287 286 285
207 207 208 210 210 209 207 207 206 203 198 196 193 190 189 191 194 197 199 200 200 200 201 201 201 200 198 196 196 196 196 195 194 193 191 188 184 180 177 176 175 176 178 181 185 189 192 194 194 195 194 195 195 197 201 207 213 218 221 226 229 234 238 243 248 254 260 265 269 272 274 277 279 281 282 284 284 285 286 287 288 289 289 289 289 289
210 209 209 211 212 212 210 209 208 207 205 202 201 199 197 196 197 199 200 201 201 200 200 200 200 199 198 197 197 197 197 197 196 196 195 192 189 185 182 180 179 179 181 184 189 193 197 200 201 201 201 200 200 201 205 210 217 222 226 229 233 236 239 243 248 254 260 265 269 272 275 278 280 282 284 285 286 286 287 288 289 290 291 291 292 292
215 213 211 212 213 214 215 213 211 210 209 207 205 204 203 203 204 204 204 203 201 200 199 199 199 198 197 197 197 198 198 198 198 198 197 196 194 191 188 186 184 184 185 187 191 195 199 202 205 207 207 207 206 207 209 214 219 225 229 233 235 238 241 245 249 254 260 265 270 274 277 280 282 283 285 286 287 288 289 289 291 292 293 295 295 296
220 218 216 215 214 215 217 217 216 214 212 209 206 206 207 209 210 212 213 210 205 201 199 198 198 197 197 197 197 198 199 200 200 199 199 198 197 196 194 191 190 188 189 190 193 196 200 203 207 209 210 211 211 212 214 217 221 226 229 233 236 239 242 246 249 255 260 265 270 275 278 281 282 284 285 287 288 289 291 292 294 295 297 298 299 300
223 223 222 221 219 218 218 218 218 217 217 215 211 210 211 212 214 218 222 220 213 206 202 199 198 197 197 197 197 198 199 200 200 200 200 200 200 199 199 197 196 195 194 195 197 199 201 205 208 210 212 213 214 215 217 220 223 226 229 232 235 238 241 245 249 254 259 265 270 274 277 279 282 284 286 288 289 291 293 295 297 299 300 302 303 303
222 223 224 225 224 223 222 221 219 219 220 220 219 217 216 216 217 220 223 224 219 212 206 203 200 198 198 198 198 198 199 199 200 200 200 202 202 202 202 202 202 200 200 201 202 203 204 207 209 211 212 214 215 217 219 221 224 226 229 231 234 237 240 244 249 253 258 263 267 271 274 277 280 283 286 289 291 293 295 297 299 301 303 304 305 305
218 217 218 219 222 223 223 222 221 221 222 223 224 224 223 221 220 220 220 219 217 214 211 208 205 202 200 200 200 200 200 200 199 199 200 202 203 205 205 206 206 205 205 206 208 208 209 210 212 213 213 215 217 219 221 223 225 227 229 231 234 237 240 244 248 252 256 260 264 268 271 275 278 282 285 288 290 293 295 297 300 302 303 305 305 306
216 213 212 213 215 217 218 219 220 220 221 222 224 225 224 223 221 220 218 217 215 214 213 212 209 206 204 204 203 202 201 201 201 201 202 203 205 207 208 210 210 210 209 210 212 212 212 214 215 215 215 216 219 221 223 225 227 229 231 233 235 237 240 244 247 251 254 257 261 265 268 272 276 279 282 286 288 291 294 297 299 302 303 304 305 306
212 211 210 210 210 211 213 214 215 216 218 219 221 223 223 222 221 219 217 216 214 213 213 212 209 206 206 207 207 206 204 204 204 205 206 207 209 210 211 213 214 214 213 214 215 216 216 217 217 217 217 219 220 222 224 226 229 231 233 234 236 238 240 243 246 249 252 255 259 262 266 269 273 276 279 283 286 289 292 295 297 300 302 304 305 305
207 208 208 208 208 209 210 211 212 213 214 215 218 220 221 221 219 218 216 214 212 211 212 212 210 207 206 208 210 210 207 206 206 207 208 210 212 212 213 214 215 216 217 217 217 218 218 219 220 219 220 220 222 224 226 228 230 232 234 235 236 238 240 243 245 248 251 253 256 259 262 266 269 273 276 279 282 286 289 292 295 298 300 302 303 304
200 202 203 205 207 208 209 210 210 211 211 212 214 216 216 216 216 214 213 211 209 209 210 210 210 210 209 210 212 212 210 209 208 207 207 210 212 213 213 214 215 216 217 218 219 219 219 220 220 220 221 222 223 225 227 229 231 232 233 235 236 238 240 243 245 247 249 251 254 257 260 263 267 270 273 276 279 283 286 289 292 295 297 299 301 302
192 194 199 201 204 206 208 210 211 211 210 211 211 212 212 213 212 210 209 207 206 207 210 211 211 211 212 213 214 214 212 209 208 207 207 208 210 211 212 211 211 213 215 217 218 218 218 219 220 220 221 222 223 224 226 228 230 231 233 234 236 238 240 242 244 246 247 250 252 255 258 261 265 268 271 274 277 280 283 286 289 292 295 297 299 300
188 188 193 196 199 203 206 210 211 212 212 212 213 213 213 212 211 210 208 205 204 206 209 210 210 211 213 213 214 215 215 212 210 209 208 207 207 208 207 206 205 207 210 213 215 216 216 217 218 219 219 220 221 222 224 226 228 230 232 233 235 237 238 240 242 244 246 249 251 254 257 260 263 266 269 272 275 277 280 284 287 290 293 295 296 298
187 181 183 188 193 197 202 206 210 213 215 216 217 217 217 216 216 214 213 209 207 207 209 209 210 211 213 214 215 217 218 215 214 214 213 211 210 209 207 202 200 201 204 207 210 212 213 214 215 216 217 218 219 220 222 224 226 228 230 232 234 236 238 240 242 244 246 248 251 253 256 259 262 265 267 270 273 275 278 281 285 288 290 292 294 296
182 174 173 177 183 188 193 198 204 209 213 216 219 220 221 221 221 221 220 217 214 212 211 211 211 213 214 215 216 217 218 218 217 217 217 215 215 215 213 205 198 196 197 198 201 205 209 210 211 212 214 216 217 218 220 221 223 225 227 230 232 235 238 240 242 244 246 249 251 253 256 259 262 264 267 269 271 274 277 280 283 286 289 291 293 294
170 168 168 171 175 179 182 185 190 196 203 209 213 216 219 220 221 222 222 221 219 217 215 214 213 213 214 215 215 216 216 217 217 217 216 215 214 212 211 206 200 195 192 192 195 199 204 206 208 210 212 213 215 216 218 219 220 222 225 228 232 235 238 241 243 245 247 249 251 254 256 259 262 264 266 268 270 273 276 279 282 285 287 289 292 294
154 157 160 163 166 171 174 175 176 179 185 193 200 207 213 216 218 219 219 220 220 219 217 216 213 211 211 212 213 212 213 215 214 213 212 210 206 202 202 200 198 194 189 190 193 198 201 204 207 209 210 211 211 213 215 216 217 220 223 227 232 235 239 242 244 245 247 249 251 254 257 259 262 264 266 268 270 273 276 279 282 284 287 289 292 294
144 147 151 155 160 165 169 171 171 171 172 176 182 190 198 204 208 212 215 217 218 217 216 214 212 210 210 210 209 208 208 209 208 208 208 204 199 195 195 194 194 191 187 187 190 195 197 199 202 205 207 208 208 209 211 213 216 219 223 228 232 235 238 240 242 245 247 249 252 254 257 260 262 264 266 268 270 273 276 280 282 285 287 290 292 294
128 133 140 147 154 160 165 169 171 170 168 167 169 173 179 183 187 192 198 205 211 213 213 211 210 209 208 206 204 203 202 201 202 203 204 202 197 192 190 189 189 189 186 182 184 188 191 194 196 199 201 203 205 207 209 213 217 220 224 228 231 234 236 238 241 243 246 249 252 255 257 260 262 264 266 269 271 275 278 281 283 285 288 291 293 294
117 123 131 141 151 158 163 168 170 171 169 167 165 164 165 166 166 167 172 184 195 201 202 204 205 204 202 200 199 198 198 197 198 200 201 200 198 194 191 188 188 188 187 181 180 184 189 192 195 196 197 199 202 205 208 213 217 221 225 228 231 233 235 237 240 242 246 249 252 255 258 261 263 265 268 270 273 276 279 281 284 286 289 291 293 294
121 124 132 142 151 159 163 167 169 170 171 170 167 165 164 164 163 163 164 170 177 182 186 192 196 198 197 196 196 196 196 197 198 200 200 201 201 200 197 194 193 196 196 190 187 188 192 196 198 199 199 200 200 202 206 211 216 220 225 229 232 233 235 238 240 244 247 250 253 256 259 261 264 267 269 272 274 277 280 282 284 286 289 290 292 293
148 154 167 172 175 179 179 177 175 175 175 174 172 171 170 170 170 167 164 165 169 174 179 183 188 192 194 193 191 190 192 195 198 200 200 201 203 204 204 203 204 206 206 204 201 201 204 209 212 212 213 211 209 207 208 210 214 220 225 229 232 235 238 240 243 246 249 251 254 257 260 263 266 268 271 273 276 278 280 283 285 287 288 290 292 293
308 307 304 269 233 224 219 212 204 196 192 189 185 181 179 179 178 175 172 170 172 177 181 185 188 191 194 193 189 186 189 193 197 199 199 200 203 206 209 209 210 212 213 213 209 206 207 214 221 224 224 224 223 221 219 218 219 223 227 231 235 239 241 244 246 249 251 254 257 259 262 265 268 270 273 275 276 279 281 283 285 287 289 290 292 293
356 1 17 18 226 224 221 219 214 210 206 202 198 194 190 188 187 186 184 183 184 186 189 193 195 198 200 200 199 197 196 196 198 200 199 200 204 208 211 211 210 211 214 215 214 211 208 210 216 221 222 223 224 226 227 226 227 229 232 236 240 243 245 247 250 252 255 257 260 263 265 268 270 272 274 276 277 279 281 283 285 287 289 291 292 292
56 60 66 72 89 127 157 170 177 182 188 193 193 194 194 195 196 197 196 196 195 196 199 201 204 206 207 207 208 208 207 204 203 202 201 200 203 206 209 210 209 208 210 210 211 212 211 211 212 215 216 218 220 223 227 229 231 233 237 240 243 246 249 251 253 256 258 261 263 266 268 270 272 273 275 276 277 279 281 283 286 288 289 291 291 292
69 72 74 76 79 86 99 117 131 142 153 163 170 177 183 189 194 198 201 202 202 202 203 205 208 211 213 212 211 211 210 209 206 204 201 200 202 205 207 206 206 206 205 203 203 204 206 210 211 211 213 216 219 222 226 229 233 235 239 242 245 248 251 254 256 259 261 263 265 267 269 271 272 273 274 276 277 279 281 284 286 287 289 290 291 291
74 77 79 81 83 85 91 98 107 119 130 140 150 158 166 173 180 186 192 196 199 201 203 204 206 208 210 212 211 210 209 209 207 204 201 199 201 204 206 205 204 204 203 202 201 200 201 205 207 208 210 214 219 223 227 230 233 237 240 243 246 249 252 255 258 260 262 264 266 268 269 270 272 273 274 276 277 279 281 283 285 286 288 289 289 290
76 78 81 83 85 87 90 93 99 105 113 124 136 147 155 161 167 172 177 183 189 193 197 200 203 206 207 208 208 208 209 209 207 205 202 201 202 204 206 206 206 206 205 205 205 205 205 206 207 209 211 214 219 224 229 232 235 237 241 244 247 250 253 256 258 260 262 264 266 267 269 270 271 272 274 275 277 279 281 283 284 285 286 287 288 289
76 79 82 83 85 86 88 91 93 97 101 108 119 133 143 152 158 164 170 175 181 186 190 194 199 202 205 208 208 208 208 209 208 207 206 206 206 208 209 211 211 210 209 210 212 213 213 214 215 215 216 217 220 225 231 234 237 239 242 246 249 252 254 257 259 260 262 264 266 268 269 270 271 272 274 275 277 279 280 281 282 283 284 285 286 287
74 78 81 83 84 85 86 89 91 92 94 98 105 113 124 132 141 151 162 170 177 183 186 190 194 198 202 205 207 207 208 207 208 209 210 211 212 214 216 218 218 218 217 217 218 220 221 222 223 224 224 225 227 230 234 238 240 243 245 249 252 254 257 259 261 262 264 266 267 269 269 270 271 272 274 275 277 278 279 280 281 282 283 284 285 286
72 77 80 82 84 85 88 90 92 93 96 100 103 107 111 117 126 135 146 157 167 175 181 186 190 194 198 202 205 207 207 207 207 208 210 212 216 219 222 225 226 227 226 227 227 228 229 230 232 233 234 235 237 239 241 243 246 248 250 252 255 257 260 261 263 265 266 267 268 269 270 270 271 272 274 275 276 277 277 278 279 281 282 283 284 284
73 78 82 84 86 87 90 91 93 95 98 102 104 106 110 115 122 128 135 143 152 161 169 177 183 188 193 196 200 204 207 208 209 210 211 213 217 220 224 228 231 232 233 234 235 236 237 238 239 240 241 242 244 246 248 250 251 252 253 255 258 260 261 262 264 265 266 267 268 268 269 269 271 272 273 274 275 275 275 276 278 279 281 281 281 281
75 81 85 86 88 89 90 91 93 94 95 99 103 107 111 117 123 129 136 142 148 153 160 168 175 181 187 191 195 200 203 207 209 211 212 214 217 220 223 227 231 234 235 237 238 239 241 242 244 245 246 247 249 250 252 254 254 255 256 257 258 259 261 262 264 266 267 268 268 267 268 269 270 272 272 273 274 275 276 277 278 279 280 281 280 279
79 84 86 88 90 91 91 91 91 91 93 97 102 106 108 113 118 125 134 140 146 149 154 160 166 172 178 185 190 195 199 203 207 209 212 213 216 218 221 225 228 231 233 235 237 238 240 241 243 245 247 248 249 251 253 254 256 256 257 258 258 259 262 264 266 266 266 267 268 268 268 269 270 271 272 273 274 275 276 278 278 279 279 280 280 279
81 86 88 91 93 93 93 94 95 95 97 101 107 108 106 105 106 110 119 128 135 142 148 154 158 163 169 176 186 193 197 200 203 206 210 212 213 215 218 221 224 227 228 230 232 235 236 237 239 242 244 245 247 249 251 253 255 257 258 258 259 262 266 266 266 265 265 266 267 268 269 270 271 272 272 273 274 275 276 278 278 278 278 278 278 278
80 86 92 98 100 101 102 104 104 104 105 108 111 110 107 103 101 102 105 111 119 127 134 141 152 159 158 158 172 188 199 205 207 209 212 214 215 217 218 220 221 223 224 226 229 232 234 235 237 238 240 242 244 246 248 251 253 256 258 259 260 262 263 263 264 266 266 267 268 269 270 271 272 273 274 274 274 275 276 276 276 277 277 277 277 277
80 90 98 104 109 111 111 110 110 111 111 114 114 113 110 106 106 105 105 104 106 107 105 108 114 121 128 129 137 160 195 217 224 225 226 227 228 229 229 229 228 227 226 228 230 233 236 239 241 242 243 245 246 248 250 253 255 257 259 261 263 263 263 264 266 268 268 269 270 271 272 274 274 275 275 275 275 275 275 275 275 274 275 275 276 276
81 91 99 106 111 113 113 113 113 113 114 116 116 114 112 109 108 109 108 106 104 100 94 91 91 92 99 100 103 109 141 232 247 249 250 250 250 250 249 248 245 243 241 239 239 240 241 243 247 250 253 255 255 256 256 257 260 262 264 265 266 267 268 269 270 270 270 271 272 274 276 277 278 278 277 276 275 275 275 274 274 273 273 274 274 275
78 88 98 106 111 114 116 116 115 113 112 113 113 113 110 107 105 105 106 105 101 97 94 95 99 100 98 93 90 84 68 344 292 280 274 270 267 267 269 268 266 262 260 257 254 254 253 253 255 257 258 260 261 262 262 262 263 264 266 267 268 268 269 269 270 271 271 273 274 276 278 281 281 280 279 278 277 276 275 274 273 273 274 274 274 275
74 86 96 106 112 116 117 118 116 114 111 111 111 111 109 106 102 99 97 93 90 86 86 90 96 100 104 102 102 107 107 338 306 293 282 283 280 276 276 277 278 277 275 273 271 269 268 267 267 266 264 263 264 265 265 264 264 263 264 267 268 268 267 267 268 271 272 274 275 278 281 283 284 283 282 281 279 276 274 273 273 273 274 275 275 276
73 84 95 106 112 115 117 121 121 118 114 112 110 108 108 105 99 93 87 81 74 69 63 58 52 53 60 70 97 232 242 251 266 275 278 282 283 283 281 280 281 282 283 282 281 281 280 279 278 276 272 268 266 266 267 265 264 264 265 266 266 266 265 266 268 271 272 274 277 280 283 286 286 286 286 285 282 278 275 273 273 273 275 276 278 278
41 78 103 113 117 120 124 129 130 127 122 118 113 108 103 99 91 82 74 66 56 45 32 23 12 357 340 326 309 297 283 278 277 277 279 281 281 282 282 281 283 284 284 282 284 285 284 284 283 282 278 272 265 260 261 263 264 264 265 265 264 264 263 265 269 271 273 276 278 281 284 286 287 287 287 286 284 281 278 276 275 276 278 279 281 281
306 296 263 208 178 159 157 155 152 148 140 135 128 120 108 94 76 59 42 27 15 5 356 348 341 335 326 318 311 304 298 293 291 291 292 291 289 288 287 284 283 282 281 279 277 275 274 274 273 274 275 271 261 250 247 254 260 262 261 261 262 264 264 267 270 274 277 280 282 283 285 286 286 287 287 286 285 284 282 279 278 278 280 282 282 282
Height
1425 1426 1428 1429 1430 1431 1432 1434 1435 1436 1437 1438 1440 1441 1442 1444 1446 1447 1448 1449 1450 1451 1452 1453 1454 1456 1456 1457 1458 1459 1459 1460 1461 1462 1463 1464 1465 1466 1467 1469 1470 1471 1473 1474 1475 1476 1477 1479 1480 1481 1482 1482 1483 1483 1484 1485 1485 1486 1486 1487 1488 1489 1490 1491 1491 1492 1492 1493 1494 1494 1495 1495 1496 1496 1496 1497 1497 1497 1497 1498 1498 1499 1499 1500 1500 1501
1425 1426 1427 1428 1429 1431 1432 1433 1434 1435 1436 1438 1439 1440 1442 1443 1445 1446 1447 1449 1450 1451 1452 1453 1454 1455 1456 1456 1457 1458 1458 1459 1460 1461 1462 1463 1464 1466 1467 1468 1469 1471 1472 1473 1475 1476 1477 1478 1479 1480 1481 1481 1482 1482 1483 1484 1484 1485 1486 1487 1488 1488 1489 1490 1491 1491 1492 1492 1493 1493 1494 1494 1495 1495 1496 1496 1496 1496 1496 1497 1497 1498 1499 1499 1500 1500
1424 1426 1426 1427 1429 1430 1431 1432 1433 1434 1436 1437 1438 1440 1441 1442 1444 1445 1447 1448 1449 1451 1451 1452 1453 1454 1455 1456 1456 1457 1458 1459 1460 1461 1461 1463 1464 1465 1466 1468 1469 1471 1471 1473 1474 1475 1476 1477 1478 1479 1480 1481 1481 1482 1482 1483 1484 1484 1485 1486 1487 1488 1489 1489 1490 1491 1491 1492 1492 1493 1493 1493 1494 1494 1495 1495 1495 1495 1496 1496 1496 1497 1498 1498 1499 1499
1424 1425 1426 1427 1428 1429 1430 1431 1432 1434 1435 1436 1438 1439 1441 1442 1443 1445 1446 1447 1449 1450 1451 1452 1452 1453 1454 1455 1456 1456 1457 1458 1459 1460 1461 1462 1463 1465 1466 1467 1469 1470 1471 1472 1473 1474 1476 1476 1477 1478 1479 1480 1480 1481 1482 1482 1483 1484 1485 1486 1486 1487 1488 1489 1489 1490 1491 1491 1491 1492 1492 1493 1493 1493 1494 1494 1495 1495 1495 1495 1496 1496 1497 1497 1498 1498
1422 1424 1425 1426 1427 1429 1430 1431 1432 1433 1434 1436 1437 1438 1440 1441 1443 1444 1446 1447 1448 1449 1450 1451 1452 1453 1454 1455 1456 1456 1457 1458 1459 1460 1461 1462 1463 1465 1466 1467 1469 1470 1471 1472 1473 1474 1475 1476 1477 1477 1478 1479 1480 1481 1481 1482 1482 1483 1484 1485 1486 1487 1487 1488 1489 1489 1490 1490 1491 1491 1491 1492 1492 1493 1493 1493 1494 1494 1494 1494 1495 1496 1496 1496 1497 1497
1421 1423 1424 1426 1426 1428 1429 1430 1431 1432 1433 1435 1436 1438 1439 1441 1442 1444 1445 1446 1447 1448 1450 1451 1451 1452 1453 1454 1455 1456 1457 1458 1459 1460 1461 1462 1463 1465 1466 1467 1468 1469 1471 1471 1472 1473 1474 1475 1476 1477 1478 1478 1479 1480 1481 1481 1482 1483 1484 1484 1485 1486 1487 1487 1488 1488 1489 1489 1490 1490 1490 1491 1491 1491 1492 1492 1493 1493 1493 1493 1494 1494 1495 1495 1496 1496
1420 1422 1423 1424 1425 1426 1428 1429 1430 1431 1432 1434 1435 1436 1438 1440 1441 1442 1443 1445 1446 1447 1449 1450 1451 1452 1453 1454 1455 1456 1457 1458 1459 1460 1461 1462 1463 1465 1466 1467 1468 1469 1470 1471 1472 1473 1474 1475 1476 1476 1477 1478 1478 1479 1480 1481 1481 1482 1483 1484 1484 1485 1486 1486 1487 1487 1488 1488 1488 1489 1489 1490 1490 1490 1491 1491 1492 1492 1492 1492 1492 1493 1494 1494 1494 1495
1419 1421 1422 1423 1424 1425 1426 1428 1429 1430 1431 1433 1434 1435 1436 1438 1440 1441 1442 1444 1445 1446 1448 1449 1450 1451 1453 1454 1455 1456 1456 1457 1458 1459 1461 1462 1463 1464 1466 1467 1468 1469 1470 1471 1471 1472 1473 1474 1475 1476 1476 1477 1478 1479 1479 1480 1481 1481 1482 1483 1483 1484 1485 1486 1486 1486 1487 1487 1487 1488 1488 1488 1489 1489 1490 1490 1491 1491 1491 1491 1491 1492 1492 1492 1493 1493
1418 1419 1420 1421 1422 1424 1425 1426 1427 1429 1430 1432 1433 1434 1435 1437 1438 1440 1441 1442 1443 1445 1446 1448 1449 1451 1452 1453 1454 1455 1456 1457 1458 1459 1460 1461 1462 1464 1465 1466 1467 1468 1469 1470 1471 1472 1473 1474 1474 1475 1476 1476 1477 1478 1479 1479 1480 1481 1481 1482 1483 1483 1484 1485 1485 1486 1486 1486 1486 1487 1487 1487 1487 1488 1488 1489 1489 1490 1490 1490 1490 1491 1491 1491 1491 1491
1416 1417 1419 1420 1421 1422 1424 1425 1426 1427 1429 1431 1432 1433 1434 1436 1437 1438 1440 1441 1442 1444 1445 1446 1448 1449 1451 1452 1453 1454 1455 1456 1457 1458 1460 1461 1462 1463 1464 1466 1466 1467 1468 1470 1471 1471 1472 1473 1474 1475 1475 1476 1477 1477 1478 1479 1479 1480 1481 1481 1482 1482 1483 1484 1484 1485 1485 1485 1486 1486 1486 1486 1486 1487 1487 1488 1488 1488 1489 1489 1489 1489 1490 1490 1490 1490
1415 1416 1417 1419 1420 1421 1422 1423 1425 1426 1427 1429 1430 1432 1433 1435 1436 1437 1438 1440 1441 1442 1444 1445 1446 1448 1449 1450 1451 1452 1453 1455 1456 1457 1459 1460 1461 1463 1464 1465 1466 1467 1467 1469 1470 1471 1471 1472 1473 1474 1475 1475 1476 1477 1477 1478 1479 1479 1480 1481 1481 1481 1482 1483 1483 1484 1484 1484 1485 1485 1485 1485 1486 1486 1486 1487 1487 1487 1488 1488 1488 1488 1488 1488 1488 1488
1413 1415 1416 1417 1418 1420 1421 1422 1423 1425 1426 1427 1428 1430 1431 1433 1435 1436 1437 1438 1439 1441 1442 1443 1444 1446 1446 1448 1449 1450 1451 1453 1454 1456 1457 1458 1460 1461 1462 1464 1465 1466 1466 1467 1468 1469 1470 1471 1472 1473 1474 1475 1475 1476 1477 1477 1478 1479 1479 1480 1480 1481 1481 1482 1482 1483 1483 1483 1484 1484 1484 1484 1485 1485 1485 1486 1486 1486 1487 1487 1487 1487 1487 1487 1487 1487
1412 1413 1415 1416 1417 1418 1420 1421 1422 1424 1425 1426 1426 1428 1429 1431 1433 1435 1436 1437 1438 1439 1440 1441 1442 1443 1444 1446 1447 1448 1450 1451 1452 1454 1456 1457 1458 1460 1461 1462 1463 1464 1465 1466 1467 1468 1469 1470 1471 1472 1473 1474 1475 1475 1476 1476 1477 1478 1478 1479 1479 1480 1480 1481 1481 1482 1482 1482 1483 1483 1483 1483 1484 1484 1484 1485 1485 1485 1486 1486 1486 1486 1486 1486 1486 1486
1411 1412 1413 1414 1415 1417 1418 1419 1421 1422 1423 1424 1425 1426 1428 1430 1431 1433 1434 1436 1437 1438 1439 1439 1440 1441 1443 1444 1446 1447 1448 1449 1451 1453 1454 1456 1457 1458 1459 1461 1461 1462 1464 1465 1466 1466 1468 1469 1470 1471 1472 1473 1474 1474 1475 1476 1476 1477 1477 1478 1478 1479 1480 1480 1480 1481 1481 1481 1482 1482 1482 1482 1483 1483 1483 1484 1484 1484 1484 1485 1485 1485 1485 1484 1484 1484
1409 1410 1412 1413 1414 1416 1417 1418 1420 1421 1422 1423 1424 1426 1427 1429 1430 1431 1432 1433 1435 1436 1438 1438 1439 1440 1441 1443 1445 1446 1447 1448 1449 1451 1453 1454 1456 1457 1458 1459 1460 1461 1462 1463 1464 1466 1467 1468 1469 1470 1471 1472 1472 1473 1474 1475 1475 1476 1476 1477 1477 1478 1478 1479 1479 1480 1480 1481 1481 1481 1481 1481 1482 1482 1482 1483 1483 1483 1483 1483 1483 1483 1483 1483 1483 1483
1407 1409 1410 1411 1413 1414 1416 1417 1418 1420 1421 1422 1424 1425 1426 1427 1428 1429 1430 1431 1433 1434 1436 1436 1438 1439 1441 1442 1444 1445 1446 1447 1448 1450 1451 1453 1455 1456 1457 1458 1459 1460 1461 1462 1463 1465 1466 1467 1468 1469 1470 1471 1471 1472 1473 1474 1474 1475 1476 1476 1476 1477 1477 1478 1478 1479 1479 1479 1480 1480 1480 1481 1481 1481 1481 1481 1482 1482 1482 1482 1482 1482 1482 1482 1482 1482
1406 1407 1408 1410 1411 1413 1414 1416 1417 1418 1420 1421 1422 1423 1424 1425 1426 1428 1429 1430 1431 1432 1433 1434 1436 1438 1440 1441 1442 1443 1444 1445 1446 1448 1450 1452 1454 1455 1456 1457 1458 1459 1460 1461 1462 1464 1465 1466 1467 1468 1469 1469 1470 1471 1471 1472 1473 1474 1474 1475 1476 1476 1476 1477 1477 1477 1478 1478 1479 1479 1479 1480 1480 1480 1480 1481 1481 1481 1481 1481 1481 1481 1481 1481 1481 1480
1404 1405 1406 1408 1410 1411 1412 1414 1415 1416 1418 1419 1420 1421 1423 1424 1425 1426 1427 1428 1429 1431 1431 1432 1434 1436 1438 1440 1441 1442 1442 1444 1445 1447 1449 1451 1452 1454 1455 1456 1457 1458 1459 1460 1461 1462 1464 1465 1465 1466 1467 1468 1469 1469 1470 1471 1472 1473 1473 1474 1474 1475 1475 1475 1476 1476 1476 1477 1477 1478 1478 1478 1479 1479 1479 1479 1480 1480 1480 1480 1480 1480 1480 1480 1479 1479
1402 1404 1405 1407 1408 1409 1411 1412 1413 1414 1416 1417 1418 1420 1421 1422 1424 1425 1426 1427 1428 1429 1430 1431 1433 1434 1436 1438 1439 1440 1441 1442 1443 1445 1447 1448 1450 1451 1453 1454 1455 1456 1458 1459 1460 1461 1462 1463 1464 1464 1465 1466 1467 1468 1469 1470 1471 1471 1472 1472 1473 1473 1473 1474 1474 1475 1475 1476 1476 1476 1476 1477 1477 1477 1478 1478 1478 1479 1479 1479 1479 1479 1478 1478 1478 1478
1400 1402 1403 1405 1406 1408 1409 1410 1411 1412 1414 1415 1416 1418 1419 1421 1422 1423 1424 1425 1426 1428 1430 1431 1432 1433 1434 1436 1437 1439 1440 1441 1442 1444 1445 1446 1447 1449 1451 1451 1452 1454 1456 1457 1458 1459 1460 1461 1462 1462 1463 1464 1465 1466 1467 1468 1469 1470 1470 1471 1471 1472 1472 1472 1473 1473 1474 1474 1474 1475 1475 1476 1476 1476 1476 1477 1477 1477 1477 1477 1477 1477 1477 1477 1476 1476
1398 1399 1401 1402 1404 1406 1407 1409 1410 1411 1412 1413 1415 1416 1417 1419 1420 1421 1422 1424 1426 1427 1429 1430 1431 1431 1433 1434 1436 1437 1438 1440 1441 1442 1443 1444 1445 1446 1448 1449 1450 1451 1453 1455 1456 1457 1458 1459 1460 1461 1461 1462 1463 1464 1465 1466 1467 1468 1469 1470 1470 1470 1471 1471 1471 1472 1472 1472 1473 1473 1474 1474 1475 1475 1475 1476 1476 1476 1476 1476 1476 1476 1476 1475 1475 1475
1397 1397 1399 1401 1402 1404 1405 1407 1408 1409 1411 1412 1413 1415 1416 1417 1419 1420 1421 1423 1425 1426 1427 1428 1429 1430 1431 1433 1434 1435 1437 1438 1440 1441 1442 1443 1444 1446 1447 1447 1448 1450 1451 1452 1454 1455 1456 1457 1458 1459 1460 1461 1461 1462 1463 1465 1466 1467 1467 1468 1469 1469 1469 1469 1470 1470 1471 1471 1471 1472 1472 1473 1473 1473 1474 1474 1474 1475 1475 1475 1474 1474 1474 1474 1473 1473
1396 1397 1398 1399 1400 1402 1403 1405 1406 1408 1409 1411 1412 1413 1414 1416 1417 1418 1420 1421 1423 1424 1425 1426 1427 1429 1430 1431 1433 1434 1436 1437 1438 1439 1441 1442 1443 1444 1446 1447 1448 1448 1449 1450 1451 1452 1454 1455 1456 1456 1458 1459 1459 1460 1461 1463 1464 1465 1466 1466 1467 1467 1467 1468 1468 1469 1469 1470 1470 1471 1471 1471 1471 1472 1472 1472 1473 1473 1473 1473 1473 1472 1472 1472 1471 1471
1396 1397 1398 1399 1400 1401 1402 1403 1405 1406 1408 1409 1411 1412 1413 1415 1416 1417 1418 1420 1421 1422 1424 1425 1426 1428 1429 1430 1431 1433 1435 1436 1437 1438 1440 1441 1441 1443 1445 1446 1447 1447 1447 1448 1448 1449 1451 1452 1453 1454 1455 1456 1457 1459 1460 1461 1462 1464 1464 1465 1465 1466 1466 1466 1467 1467 1468 1468 1469 1469 1469 1470 1470 1470 1471 1471 1471 1471 1471 1471 1471 1471 1470 1470 1470 1470
1395 1396 1397 1398 1399 1400 1401 1402 1403 1405 1406 1407 1409 1411 1412 1413 1415 1416 1417 1419 1420 1421 1423 1424 1426 1427 1428 1429 1431 1432 1433 1434 1435 1436 1438 1439 1440 1441 1443 1444 1446 1446 1446 1446 1446 1447 1448 1450 1451 1452 1453 1455 1456 1457 1458 1460 1461 1461 1462 1463 1464 1464 1465 1465 1466 1466 1466 1467 1467 1468 1468 1468 1468 1469 1469 1469 1469 1469 1469 1469 1469 1469 1468 1468 1468 1468
1395 1396 1396 1398 1399 1400 1401 1402 1403 1404 1405 1406 1407 1409 1410 1411 1413 1414 1416 1417 1419 1420 1421 1422 1424 1425 1426 1428 1430 1431 1432 1433 1434 1435 1436 1438 1439 1440 1441 1442 1443 1444 1445 1445 1445 1446 1447 1448 1449 1451 1452 1453 1455 1456 1457 1458 1458 1459 1460 1461 1462 1463 1463 1464 1465 1465 1465 1466 1466 1466 1466 1466 1467 1467 1467 1467 1468 1468 1468 1467 1467 1467 1466 1466 1466 1466
1396 1396 1397 1397 1398 1399 1400 1401 1402 1403 1404 1405 1406 1408 1409 1410 1412 1413 1414 1415 1416 1418 1419 1421 1422 1424 1426 1427 1429 1430 1431 1432 1433 1434 1436 1437 1438 1439 1440 1441 1442 1443 1443 1443 1444 1444 1445 1446 1447 1449 1450 1451 1453 1454 1455 1456 1456 1457 1458 1459 1460 1461 1462 1462 1463 1463 1464 1464 1464 1465 1465 1465 1465 1465 1466 1466 1466 1466 1466 1466 1465 1465 1465 1465 1465 1464
1396 1396 1397 1397 1398 1399 1400 1401 1402 1403 1404 1405 1406 1407 1408 1410 1411 1412 1412 1413 1415 1416 1417 1418 1420 1422 1424 1426 1427 1428 1429 1431 1432 1433 1435 1436 1437 1438 1439 1441 1442 1443 1443 1443 1443 1443 1444 1445 1446 1447 1449 1450 1451 1453 1454 1454 1455 1456 1456 1457 1459 1460 1460 1461 1461 1462 1462 1462 1463 1463 1463 1463 1463 1464 1464 1464 1464 1464 1464 1464 1463 1463 1463 1462 1462 1462
1396 1396 1397 1397 1398 1399 1400 1401 1402 1402 1403 1404 1406 1406 1408 1409 1410 1411 1411 1412 1414 1415 1416 1417 1419 1421 1422 1424 1425 1427 1428 1429 1431 1432 1434 1436 1436 1437 1439 1440 1441 1442 1443 1443 1443 1444 1445 1446 1446 1448 1448 1449 1450 1451 1452 1453 1453 1454 1455 1456 1457 1458 1459 1459 1460 1460 1460 1461 1461 1461 1461 1461 1462 1462 1462 1462 1462 1462 1462 1462 1461 1461 1461 1461 1460 1460
1396 1397 1397 1397 1398 1399 1399 1400 1401 1402 1403 1404 1405 1406 1407 1408 1409 1410 1411 1412 1413 1414 1415 1417 1418 1420 1421 1423 1424 1426 1427 1428 1429 1431 1432 1434 1435 1436 1437 1439 1440 1441 1442 1442 1443 1444 1445 1446 1447 1448 1449 1449 1450 1451 1451 1452 1452 1453 1454 1455 1456 1456 1457 1458 1458 1458 1459 1459 1459 1459 1460 1460 1460 1460 1460 1460 1461 1461 1460 1460 1459 1459 1459 1458 1458 1458
1396 1397 1397 1397 1398 1399 1399 1400 1401 1402 1403 1404 1405 1406 1406 1407 1408 1409 1410 1411 1412 1413 1415 1416 1418 1419 1421 1422 1424 1425 1425 1426 1428 1429 1431 1432 1433 1434 1436 1437 1438 1439 1440 1441 1442 1442 1443 1444 1446 1447 1448 1449 1450 1451 1451 1451 1451 1452 1452 1453 1454 1455 1456 1456 1456 1457 1457 1457 1457 1457 1458 1458 1458 1458 1458 1458 1458 1458 1458 1458 1457 1457 1457 1456 1456 1456
1396 1397 1397 1398 1398 1399 1400 1400 1401 1402 1403 1404 1405 1406 1406 1407 1408 1409 1410 1411 1412 1413 1414 1416 1417 1419 1420 1421 1423 1423 1424 1425 1426 1428 1429 1431 1431 1432 1434 1435 1436 1437 1438 1439 1440 1441 1441 1442 1443 1445 1446 1447 1449 1450 1450 1450 1451 1451 1451 1452 1453 1454 1454 1455 1455 1455 1455 1456 1456 1456 1456 1456 1456 1456 1456 1456 1456 1456 1456 1456 1456 1455 1455 1455 1454 1454
1397 1397 1397 1398 1398 1399 1400 1400 1401 1402 1403 1404 1405 1406 1406 1407 1408 1409 1410 1411 1411 1413 1414 1415 1416 1418 1419 1421 1422 1423 1424 1425 1426 1427 1428 1429 1430 1431 1432 1433 1434 1436 1436 1437 1438 1439 1440 1441 1441 1443 1444 1445 1446 1448 1448 1449 1449 1450 1450 1451 1451 1452 1452 1453 1453 1453 1453 1454 1454 1454 1454 1454 1455 1455 1454 1454 1455 1454 1454 1454 1454 1453 1453 1452 1452 1452
1397 1397 1398 1398 1399 1399 1400 1401 1401 1402 1403 1404 1405 1406 1406 1407 1408 1409 1410 1411 1411 1412 1414 1415 1416 1417 1418 1420 1421 1422 1423 1424 1425 1426 1427 1428 1429 1430 1431 1432 1433 1434 1435 1436 1436 1437 1439 1439 1440 1441 1443 1444 1445 1446 1446 1447 1448 1448 1449 1450 1450 1451 1451 1451 1451 1451 1452 1452 1452 1452 1452 1453 1453 1452 1452 1452 1452 1452 1452 1452 1452 1451 1451 1451 1450 1450
1398 1398 1398 1399 1399 1400 1400 1401 1402 1403 1403 1404 1405 1406 1406 1407 1408 1409 1410 1411 1411 1412 1413 1414 1416 1417 1418 1419 1421 1421 1423 1424 1425 1426 1427 1428 1429 1430 1431 1431 1432 1433 1434 1435 1436 1437 1438 1439 1440 1441 1441 1442 1443 1444 1445 1445 1446 1447 1448 1448 1449 1449 1449 1450 1450 1450 1450 1450 1451 1451 1451 1451 1451 1451 1451 1451 1451 1451 1451 1451 1450 1450 1449 1449 1448 1448
1399 1399 1399 1400 1400 1401 1401 1402 1402 1403 1404 1405 1405 1406 1407 1407 1408 1409 1410 1411 1411 1412 1413 1414 1415 1416 1417 1419 1420 1421 1422 1423 1424 1425 1426 1427 1428 1429 1430 1431 1432 1433 1434 1435 1436 1437 1438 1438 1439 1440 1441 1441 1442 1442 1443 1444 1445 1446 1446 1447 1447 1448 1447 1447 1447 1448 1448 1448 1449 1449 1449 1449 1449 1449 1449 1449 1449 1449 1449 1449 1448 1448 1447 1447 1446 1446
1400 1400 1400 1401 1401 1401 1402 1403 1403 1404 1405 1405 1406 1406 1407 1408 1409 1410 1410 1411 1411 1412 1413 1414 1415 1416 1417 1418 1419 1420 1421 1422 1424 1425 1426 1426 1427 1429 1430 1431 1431 1432 1434 1435 1435 1436 1437 1438 1439 1439 1440 1441 1441 1441 1441 1442 1443 1444 1445 1446 1446 1446 1446 1446 1446 1446 1446 1447 1447 1447 1447 1447 1446 1446 1447 1447 1447 1447 1447 1446 1446 1446 1445 1445 1445 1444
1401 1401 1401 1401 1402 1402 1403 1403 1404 1405 1405 1406 1406 1407 1408 1408 1409 1410 1410 1411 1411 1412 1413 1414 1415 1416 1416 1418 1419 1420 1421 1422 1423 1424 1425 1426 1427 1428 1428 1429 1430 1431 1432 1433 1434 1435 1436 1437 1438 1438 1439 1439 1439 1440 1440 1441 1442 1443 1443 1443 1444 1444 1444 1444 1444 1444 1445 1445 1446 1445 1445 1445 1445 1445 1445 1445 1445 1445 1445 1444 1444 1443 1443 1443 1443 1443
1402 1402 1402 1402 1403 1403 1404 1404 1405 1406 1406 1407 1407 1408 1408 1409 1409 1410 1411 1411 1412 1412 1413 1414 1414 1415 1416 1417 1418 1419 1421 1421 1423 1424 1424 1425 1426 1427 1427 1428 1429 1430 1431 1431 1432 1434 1435 1436 1436 1437 1437 1438 1438 1438 1439 1440 1440 1441 1441 1441 1442 1442 1442 1442 1442 1443 1443 1444 1444 1443 1443 1442 1443 1443 1443 1443 1443 1443 1443 1442 1441 1441 1441 1441 1441 1441
1403 1403 1403 1403 1404 1404 1405 1405 1406 1406 1406 1407 1408 1408 1409 1409 1410 1410 1411 1411 1412 1412 1413 1414 1414 1415 1416 1417 1418 1419 1420 1421 1422 1423 1424 1425 1425 1426 1426 1427 1428 1428 1429 1430 1431 1432 1433 1434 1434 1435 1436 1436 1436 1437 1437 1438 1438 1439 1439 1440 1440 1440 1440 1440 1441 1441 1441 1441 1441 1441 1441 1440 1441 1441 1441 1441 1441 1441 1440 1440 1440 1439 1439 1439 1439 1439
1403 1404 1404 1404 1404 1405 1405 1406 1406 1406 1407 1407 1408 1408 1409 1410 1410 1411 1411 1412 1412 1413 1413 1414 1414 1415 1416 1416 1417 1418 1419 1420 1421 1422 1423 1424 1425 1425 1426 1426 1427 1427 1428 1429 1430 1431 1431 1432 1432 1433 1434 1434 1435 1436 1436 1436 1436 1436 1437 1438 1438 1438 1438 1438 1439 1439 1439 1439 1439 1439 1438 1438 1439 1439 1439 1439 1439 1438 1438 1438 1437 1437 1437 1437 1437 1436
1404 1404 1405 1405 1405 1405 1406 1406 1406 1407 1407 1408 1408 1409 1409 1410 1410 1411 1411 1412 1412 1413 1413 1414 1415 1415 1416 1416 1417 1418 1419 1420 1420 1421 1422 1423 1423 1424 1425 1426 1426 1427 1427 1428 1429 1430 1430 1431 1431 1432 1432 1433 1433 1434 1434 1434 1435 1435 1436 1436 1436 1436 1436 1436 1437 1437 1437 1437 1436 1436 1436 1436 1437 1437 1437 1437 1436 1436 1436 1436 1436 1435 1435 1435 1435 1435
1405 1405 1405 1405 1406 1406 1406 1406 1407 1407 1408 1408 1409 1409 1410 1410 1411 1411 1411 1412 1413 1413 1414 1414 1415 1415 1416 1416 1417 1418 1418 1419 1420 1421 1421 1422 1422 1423 1424 1424 1425 1426 1426 1427 1428 1428 1429 1429 1430 1431 1431 1431 1432 1433 1433 1433 1433 1433 1434 1434 1434 1435 1435 1435 1435 1435 1435 1435 1434 1434 1434 1435 1435 1435 1435 1435 1435 1434 1434 1434 1434 1433 1433 1433 1433 1433
1405 1405 1406 1406 1406 1406 1407 1407 1408 1408 1409 1409 1409 1410 1410 1411 1411 1411 1412 1412 1413 1413 1413 1414 1414 1415 1416 1416 1417 1417 1418 1419 1419 1420 1421 1421 1422 1422 1423 1423 1424 1425 1426 1426 1426 1427 1427 1428 1429 1429 1429 1430 1431 1431 1431 1431 1431 1432 1432 1431 1432 1432 1433 1432 1432 1433 1433 1432 1432 1432 1432 1432 1433 1433 1433 1432 1432 1432 1432 1432 1432 1431 1431 1431 1431 1431
1406 1406 1406 1406 1407 1407 1407 1408 1408 1409 1409 1410 1410 1410 1411 1411 1411 1411 1412 1412 1413 1413 1413 1414 1414 1415 1415 1416 1416 1417 1417 1418 1419 1419 1420 1421 1421 1422 1422 1422 1423 1424 1424 1425 1425 1426 1426 1426 1427 1427 1428 1429 1429 1429 1430 1430 1430 1430 1430 1430 1430 1430 1430 1430 1430 1430 1430 1430 1430 1430 1430 1430 1431 1431 1430 1430 1430 1430 1430 1430 1430 1430 1430 1430 1430 1430
1406 1407 1407 1407 1407 1408 1408 1408 1409 1409 1410 1410 1410 1410 1411 1411 1411 1411 1412 1412 1413 1413 1413 1414 1414 1415 1415 1416 1416 1417 1417 1418 1418 1419 1419 1420 1420 1421 1421 1421 1422 1422 1423 1423 1424 1424 1425 1425 1426 1426 1426 1427 1427 1427 1427 1427 1428 1428 1427 1427 1428 1428 1428 1428 1428 1428 1428 1428 1428 1428 1428 1428 1428 1428 1428 1428 1428 1428 1428 1428 1428 1428 1428 1428 1428 1428
1407 1407 1408 1408 1408 1408 1409 1409 1409 1410 1410 1410 1410 1411 1411 1411 1411 1412 1412 1412 1413 1413 1414 1414 1415 1415 1415 1416 1416 1417 1417 1418 1418 1419 1419 1419 1420 1420 1421 1421 1421 1421 1422 1422 1422 1423 1423 1424 1425 1425 1425 1425 1426 1426 1426 1426 1426 1426 1426 1426 1426 1426 1426 1426 1426 1426 1426 1426 1426 1426 1426 1426 1426 1426 1425 1425 1426 1426 1426 1426 1426 1426 1426 1426 1426 1426
1408 1408 1408 1408 1408 1409 1409 1409 1410 1410 1410 1410 1410 1411 1411 1411 1411 1412 1412 1412 1413 1413 1414 1414 1415 1415 1416 1416 1416 1417 1417 1418 1418 1418 1419 1419 1419 1420 1420 1420 1420 1420 1421 1421 1421 1421 1422 1422 1423 1423 1423 1424 1424 1424 1424 1424 1424 1424 1424 1424 1424 1424 1424 1424 1424 1424 1424 1424 1424 1424 1424 1424 1424 1423 1423 1423 1423 1423 1424 1424 1425 1425 1425 1425 1425 1425
1408 1408 1408 1408 1409 1409 1409 1410 1410 1410 1410 1411 1411 1411 1411 1411 1411 1411 1412 1412 1413 1414 1414 1415 1415 1416 1416 1416 1416 1417 1417 1418 1418 1418 1418 1419 1419 1419 1419 1419 1419 1419 1420 1420 1420 1420 1421 1421 1421 1421 1422 1422 1422 1422 1422 1422 1422 1422 1422 1422 1423 1423 1422 1422 1422 1422 1423 1423 1422 1422 1422 1422 1422 1421 1421 1421 1421 1421 1421 1422 1423 1423 1423 1424 1423 1423
1408 1408 1408 1409 1409 1409 1409 1410 1410 1410 1410 1411 1411 1411 1411 1411 1411 1411 1412 1412 1413 1414 1414 1415 1415 1416 1416 1416 1416 1416 1417 1417 1417 1417 1418 1418 1418 1418 1418 1418 1419 1419 1419 1419 1419 1419 1419 1419 1420 1420 1420 1421 1421 1421 1421 1420 1421 1421 1421 1421 1421 1421 1421 1421 1421 1421 1421 1421 1421 1421 1421 1421 1420 1419 1419 1419 1418 1418 1419 1420 1421 1421 1422 1422 1422 1422
1408 1408 1408 1408 1409 1409 1409 1409 1410 1410 1410 1411 1411 1411 1411 1411 1411 1411 1412 1412 1413 1414 1414 1415 1415 1416 1416 1416 1416 1416 1416 1416 1417 1417 1417 1417 1417 1417 1417 1417 1418 1418 1418 1418 1418 1419 1419 1419 1419 1419 1419 1419 1420 1420 1420 1420 1420 1420 1420 1420 1419 1419 1419 1419 1419 1419 1419 1419 1419 1419 1419 1419 1418 1418 1417 1417 1417 1416 1416 1417 1418 1419 1420 1420 1420 1420